SXS159 EGGP-EHAM

Flight info

Callsign SXS159
Flight time N/A
Altitude 31000
Route BARTN L975 DESIG L603 LAMSO
Aircraft B38M/M-SDE1FGHILORVWXY/HB1

Departure

Time 2026-05-07 17:40
Airport Liverpool John Lennon Airport (EGGP)

Arrival

Time N/A
Airport Amsterdam Airport Schiphol (EHAM)
Time Latitude Longitude Altitude Speed Heading
2026-05-07 17:17 53.33552 -2.85846 94 ft 0 kts 176°
2026-05-07 17:30 53.33554 -2.85846 94 ft 3 kts 176°
2026-05-07 17:30 53.33572 -2.85849 95 ft 3 kts 193°
2026-05-07 17:31 53.33587 -2.85832 94 ft 3 kts 243°
2026-05-07 17:31 53.33596 -2.85804 93 ft 3 kts 245°
2026-05-07 17:31 53.33598 -2.85798 95 ft 0 kts 264°
2026-05-07 17:37 53.33598 -2.85802 95 ft 1 kts 264°
2026-05-07 17:37 53.33594 -2.85842 94 ft 6 kts 261°
2026-05-07 17:37 53.33573 -2.85927 97 ft 9 kts 215°
2026-05-07 17:37 53.33500 -2.85943 97 ft 11 kts 213°
2026-05-07 17:38 53.33479 -2.86085 95 ft 14 kts 266°
2026-05-07 17:38 53.33470 -2.86253 96 ft 15 kts 261°
2026-05-07 17:38 53.33456 -2.86427 95 ft 15 kts 264°
2026-05-07 17:38 53.33450 -2.86612 98 ft 16 kts 264°
2026-05-07 17:39 53.33387 -2.86729 96 ft 14 kts 190°
2026-05-07 17:39 53.33303 -2.86696 95 ft 11 kts 123°
2026-05-07 17:39 53.33291 -2.86570 95 ft 12 kts 83°
2026-05-07 17:39 53.33298 -2.86426 97 ft 13 kts 82°
2026-05-07 17:40 53.33307 -2.86230 98 ft 35 kts 88°
2026-05-07 17:40 53.33344 -2.85384 95 ft 109 kts 86°
2026-05-07 17:40 53.33416 -2.83794 96 ft 163 kts 85°
2026-05-07 17:40 53.33534 -2.81145 984 ft 278 kts 85°
2026-05-07 17:41 53.33826 -2.77717 1416 ft 318 kts 68°
2026-05-07 17:41 53.35241 -2.75017 2247 ft 293 kts 25°
2026-05-07 17:41 53.37051 -2.74231 2936 ft 261 kts
2026-05-07 17:41 53.38725 -2.74284 3777 ft 223 kts 355°
2026-05-07 17:42 53.40274 -2.74411 4654 ft 223 kts
2026-05-07 17:42 53.41773 -2.73994 5635 ft 220 kts 13°
2026-05-07 17:42 53.43211 -2.72711 5734 ft 252 kts 47°
2026-05-07 17:42 53.44057 -2.70082 6048 ft 265 kts 74°
2026-05-07 17:43 53.44472 -2.67048 6332 ft 268 kts 79°
2026-05-07 17:43 53.44770 -2.63947 6611 ft 270 kts 81°
2026-05-07 17:43 53.45087 -2.60783 6882 ft 272 kts 79°
2026-05-07 17:43 53.45438 -2.57656 7138 ft 274 kts 79°
2026-05-07 17:44 53.45791 -2.54522 7399 ft 274 kts 79°
2026-05-07 17:44 53.46134 -2.51369 7656 ft 275 kts 79°
2026-05-07 17:44 53.46476 -2.48199 7912 ft 276 kts 79°
2026-05-07 17:44 53.46820 -2.45027 8159 ft 277 kts 79°
2026-05-07 17:45 53.47166 -2.41840 8411 ft 278 kts 79°
2026-05-07 17:45 53.47514 -2.38636 8662 ft 279 kts 79°
2026-05-07 17:45 53.47861 -2.35426 8913 ft 280 kts 79°
2026-05-07 17:45 53.48208 -2.32199 9164 ft 281 kts 79°
2026-05-07 17:46 53.48556 -2.28962 9414 ft 283 kts 79°
2026-05-07 17:46 53.48903 -2.25720 9663 ft 283 kts 79°
2026-05-07 17:46 53.49253 -2.22443 9916 ft 284 kts 79°
2026-05-07 17:46 53.49602 -2.19170 10166 ft 286 kts 79°
2026-05-07 17:47 53.49835 -2.16989 10332 ft 287 kts 80°
2026-05-07 17:47 53.50187 -2.13648 10590 ft 287 kts 80°
2026-05-07 17:47 53.50534 -2.10337 10834 ft 289 kts 80°
2026-05-07 17:47 53.50883 -2.07002 11087 ft 290 kts 80°
2026-05-07 17:48 53.51231 -2.03664 11330 ft 291 kts 80°
2026-05-07 17:48 53.51581 -2.00305 11586 ft 292 kts 80°
2026-05-07 17:48 53.51931 -1.96937 11836 ft 294 kts 80°
2026-05-07 17:48 53.52283 -1.93543 12087 ft 295 kts 80°
2026-05-07 17:49 53.52636 -1.90146 12338 ft 296 kts 80°
2026-05-07 17:49 53.52991 -1.86725 12588 ft 298 kts 80°
2026-05-07 17:49 53.53347 -1.83287 12840 ft 298 kts 80°
2026-05-07 17:49 53.53705 -1.79852 13088 ft 299 kts 80°
2026-05-07 17:50 53.54064 -1.76401 13339 ft 300 kts 80°
2026-05-07 17:50 53.54424 -1.72939 13591 ft 301 kts 80°
2026-05-07 17:50 53.54785 -1.69468 13841 ft 302 kts 80°
2026-05-07 17:50 53.55150 -1.65979 14085 ft 303 kts 80°
2026-05-07 17:51 53.55514 -1.62486 14338 ft 304 kts 80°
2026-05-07 17:51 53.55879 -1.58997 14721 ft 304 kts 80°
2026-05-07 17:51 53.56246 -1.55476 15115 ft 306 kts 80°
2026-05-07 17:51 53.56615 -1.51937 15524 ft 308 kts 80°
2026-05-07 17:52 53.56987 -1.48382 15919 ft 309 kts 80°
2026-05-07 17:52 53.57363 -1.44782 16332 ft 317 kts 80°
2026-05-07 17:52 53.57757 -1.41023 16754 ft 327 kts 80°
2026-05-07 17:52 53.58259 -1.37237 17169 ft 335 kts 81°
2026-05-07 17:53 53.58138 -1.33331 17739 ft 338 kts 104°
2026-05-07 17:53 53.57571 -1.29447 18161 ft 345 kts 105°
2026-05-07 17:53 53.56819 -1.25581 18594 ft 351 kts 115°
2026-05-07 17:53 53.55651 -1.21983 19384 ft 326 kts 121°
2026-05-07 17:54 53.54922 -1.19591 22823 ft 144 kts 114°
2026-05-07 17:54 53.54584 -1.18314 23384 ft 118 kts 115°
2026-05-07 17:54 53.54380 -1.16834 18385 ft 94 kts 114°
2026-05-07 17:54 53.54920 -1.14084 11027 ft 327 kts 47°
2026-05-07 17:55 53.56678 -1.12690 6422 ft 216 kts 349°
2026-05-07 17:55 53.56838 -1.12781 5209 ft 197 kts 332°